TimeCDT,TemperatureF,Dew PointF,Humidity,Sea Level PressureIn,VisibilityMPH,Wind Direction,Wind SpeedMPH,Gust SpeedMPH,PrecipitationIn,Events,Conditions,WindDirDegrees,DateUTC
1:56 AM,28.9,24.1,82,30.08,10.0,Calm,Calm,-,N/A,,Clear,0,2011-10-21 06:56:00
2:56 AM,30.0,24.1,79,30.07,10.0,SE,3.5,-,N/A,,Clear,140,2011-10-21 07:56:00
3:56 AM,30.0,25.0,82,30.06,10.0,East,3.5,-,N/A,,Clear,100,2011-10-21 08:56:00
4:56 AM,30.0,26.1,85,30.06,10.0,ESE,4.6,-,N/A,,Clear,110,2011-10-21 09:56:00
5:56 AM,33.1,27.0,78,30.05,10.0,South,5.8,-,N/A,,Clear,180,2011-10-21 10:56:00
6:56 AM,34.0,28.0,79,30.06,10.0,Calm,Calm,-,N/A,,Clear,0,2011-10-21 11:56:00
7:56 AM,33.1,28.0,82,30.06,10.0,SSW,4.6,-,N/A,,Clear,200,2011-10-21 12:56:00
8:56 AM,37.9,32.0,79,30.08,10.0,Calm,Calm,-,N/A,,Clear,0,2011-10-21 13:56:00
10:56 AM,51.1,35.1,54,30.08,10.0,WNW,4.6,-,N/A,,Clear,300,2011-10-21 15:56:00
11:56 AM,57.9,36.0,44,30.07,10.0,Variable,3.5,-,N/A,,Clear,0,2011-10-21 16:56:00
12:56 PM,64.9,36.0,34,30.05,10.0,Calm,Calm,-,N/A,,Clear,0,2011-10-21 17:56:00
1:56 PM,71.1,37.0,29,30.04,10.0,WNW,5.8,-,N/A,,Clear,290,2011-10-21 18:56:00
2:56 PM,75.0,36.0,24,30.01,10.0,NNW,9.2,16.1,N/A,,Clear,330,2011-10-21 19:56:00
3:56 PM,73.9,35.1,24,30.03,10.0,NW,13.8,-,N/A,,Clear,320,2011-10-21 20:56:00
4:56 PM,72.0,37.0,28,30.04,10.0,NNW,11.5,-,N/A,,Clear,340,2011-10-21 21:56:00
5:56 PM,69.1,37.0,31,30.05,10.0,NNW,10.4,-,N/A,,Clear,340,2011-10-21 22:56:00
6:56 PM,60.1,36.0,41,30.07,10.0,North,4.6,-,N/A,,Clear,350,2011-10-21 23:56:00
7:56 PM,57.0,37.0,47,30.08,10.0,Calm,Calm,-,N/A,,Clear,0,2011-10-22 00:56:00
8:56 PM,48.9,37.0,64,30.10,10.0,WSW,4.6,-,N/A,,Clear,250,2011-10-22 01:56:00
9:56 PM,48.9,37.9,66,30.10,10.0,West,3.5,-,N/A,,Clear,280,2011-10-22 02:56:00
10:56 PM,50.0,37.0,61,30.11,10.0,Calm,Calm,-,N/A,,Clear,0,2011-10-22 03:56:00
11:56 PM,48.9,39.0,69,30.10,10.0,Calm,Calm,-,N/A,,Mostly Cloudy,0,2011-10-22 04:56:00